AFR2 LFPG-KJFK

Flight info

Callsign AFR2
Flight time N/A
Altitude 34000
Route ELCOB UT300 SENLO DCT JSY DCT LIZAD DCT LULOX/M082F340 DCT GIPER/N0470F340 DCT ADARA/M082F340 DCT 52N020W 52N030W 5130N04000W 49N050W DCT JOOPY/N0471F340 N328A TUSKY DCT PLYMM PARCH4
Aircraft B77W/H-SDE1E2E3FGHIJ2J3J4J5M1RWXY/LB1D1

Departure

Time N/A
Airport Charles de Gaulle International Airport (LFPG)

Arrival

Time 2026-05-06 14:18
Airport John F. Kennedy International Airport (KJFK)
Time Latitude Longitude Altitude Speed Heading
2026-05-06 12:36 45.82928 -61.15933 38106 ft 430 kts 244°
2026-05-06 12:36 45.80256 -61.23601 38090 ft 429 kts 244°
2026-05-06 12:37 45.77596 -61.31215 38096 ft 429 kts 244°
2026-05-06 12:37 45.74930 -61.38826 38102 ft 429 kts 244°
2026-05-06 12:38 45.72262 -61.46419 38080 ft 426 kts 244°
2026-05-06 12:38 45.69594 -61.53991 38088 ft 428 kts 244°
2026-05-06 12:39 45.66893 -61.61636 38080 ft 437 kts 244°
2026-05-06 12:39 45.64120 -61.69461 38087 ft 447 kts 243°
2026-05-06 12:40 45.61286 -61.77434 38095 ft 453 kts 244°
2026-05-06 12:40 45.58445 -61.85403 38076 ft 451 kts 244°
2026-05-06 12:41 45.55602 -61.93357 38084 ft 452 kts 244°
2026-05-06 12:41 45.52750 -62.01308 38081 ft 451 kts 244°
2026-05-06 12:42 45.49889 -62.09264 38074 ft 451 kts 244°
2026-05-06 12:42 45.47029 -62.17193 38074 ft 451 kts 244°
2026-05-06 12:43 45.44187 -62.25048 38087 ft 451 kts 244°
2026-05-06 12:43 45.41304 -62.32995 38065 ft 450 kts 244°
2026-05-06 12:44 45.38451 -62.40835 38067 ft 450 kts 244°
2026-05-06 12:44 45.35582 -62.48696 38077 ft 450 kts 244°
2026-05-06 12:45 45.32693 -62.56591 38083 ft 448 kts 244°
2026-05-06 12:46 45.28389 -62.68308 38107 ft 450 kts 244°
2026-05-06 12:46 45.25488 -62.76178 38092 ft 450 kts 244°
2026-05-06 12:47 45.22601 -62.83987 38072 ft 448 kts 244°
2026-05-06 12:47 45.19716 -62.91770 38077 ft 448 kts 244°
2026-05-06 12:48 45.16812 -62.99579 38080 ft 449 kts 244°
2026-05-06 12:48 45.13905 -63.07375 38100 ft 451 kts 244°
2026-05-06 12:49 45.10982 -63.15191 38087 ft 448 kts 244°
2026-05-06 12:49 45.08083 -63.22922 38072 ft 447 kts 244°
2026-05-06 12:50 45.05155 -63.30710 38084 ft 448 kts 244°
2026-05-06 12:50 45.02237 -63.38446 38084 ft 446 kts 244°
2026-05-06 12:51 44.99317 -63.46167 38077 ft 448 kts 244°
2026-05-06 12:51 44.96394 -63.53876 38070 ft 445 kts 244°
2026-05-06 12:52 44.93491 -63.61510 38088 ft 446 kts 244°
2026-05-06 12:52 44.90557 -63.69204 38088 ft 446 kts 244°
2026-05-06 12:53 44.87611 -63.76907 38080 ft 447 kts 244°
2026-05-06 12:53 44.84685 -63.84539 38079 ft 445 kts 244°
2026-05-06 12:54 44.81765 -63.92132 38062 ft 444 kts 244°
2026-05-06 12:54 44.78820 -63.99770 38049 ft 444 kts 244°
2026-05-06 12:55 44.75882 -64.07370 38049 ft 446 kts 244°
2026-05-06 12:55 44.72914 -64.15024 38044 ft 445 kts 244°
2026-05-06 12:56 44.69961 -64.22620 38050 ft 444 kts 244°
2026-05-06 12:56 44.67000 -64.30215 38061 ft 445 kts 244°
2026-05-06 12:57 44.64044 -64.37779 38068 ft 446 kts 244°
2026-05-06 12:57 44.61059 -64.45395 38054 ft 445 kts 244°
2026-05-06 12:58 44.58087 -64.52956 38049 ft 445 kts 244°
2026-05-06 12:58 44.55096 -64.60547 38038 ft 447 kts 243°
2026-05-06 12:59 44.52110 -64.68105 38056 ft 446 kts 243°
2026-05-06 12:59 44.49101 -64.75698 38046 ft 445 kts 243°
2026-05-06 13:00 44.46096 -64.83263 38074 ft 447 kts 243°
2026-05-06 13:00 44.43078 -64.90839 38049 ft 447 kts 243°
2026-05-06 13:01 44.40068 -64.98374 38058 ft 445 kts 243°
2026-05-06 13:01 44.37048 -65.05917 38037 ft 446 kts 243°
2026-05-06 13:02 44.34005 -65.13493 38033 ft 448 kts 243°
2026-05-06 13:02 44.30964 -65.21046 38051 ft 449 kts 243°
2026-05-06 13:03 44.27924 -65.28577 38041 ft 447 kts 243°
2026-05-06 13:03 44.24871 -65.36118 38052 ft 449 kts 243°
2026-05-06 13:04 44.21799 -65.43687 38034 ft 450 kts 243°
2026-05-06 13:04 44.18724 -65.51244 38043 ft 449 kts 243°
2026-05-06 13:05 44.15649 -65.58778 38044 ft 449 kts 243°
2026-05-06 13:05 44.12554 -65.66344 38044 ft 450 kts 242°
2026-05-06 13:06 44.09465 -65.73874 38058 ft 451 kts 242°
2026-05-06 13:06 44.06355 -65.81435 38048 ft 451 kts 242°
2026-05-06 13:07 44.03258 -65.88944 38058 ft 451 kts 242°
2026-05-06 13:07 44.00146 -65.96472 38053 ft 451 kts 242°
2026-05-06 13:08 43.97022 -66.04009 38058 ft 453 kts 242°
2026-05-06 13:08 43.93896 -66.11529 38055 ft 452 kts 243°
2026-05-06 13:09 43.90747 -66.19083 38055 ft 452 kts 243°
2026-05-06 13:09 43.87631 -66.26541 38045 ft 451 kts 243°
2026-05-06 13:10 43.84484 -66.34052 38039 ft 451 kts 243°
2026-05-06 13:10 43.81359 -66.41492 38040 ft 449 kts 243°
2026-05-06 13:11 43.78215 -66.48957 38033 ft 450 kts 243°
2026-05-06 13:11 43.75066 -66.56415 38033 ft 450 kts 243°
2026-05-06 13:12 43.71919 -66.63850 38020 ft 450 kts 243°
2026-05-06 13:12 43.68745 -66.71328 38039 ft 452 kts 242°
2026-05-06 13:13 43.65592 -66.78738 38019 ft 449 kts 242°
2026-05-06 13:13 43.62432 -66.86144 38021 ft 449 kts 242°
2026-05-06 13:14 43.59251 -66.93583 38021 ft 451 kts 242°
2026-05-06 13:14 43.56091 -67.01003 38021 ft 451 kts 243°
2026-05-06 13:15 43.52977 -67.08421 38012 ft 451 kts 243°
2026-05-06 13:15 43.49846 -67.15866 38015 ft 451 kts 243°
2026-05-06 13:16 43.46722 -67.23278 38020 ft 451 kts 243°
2026-05-06 13:16 43.43585 -67.30705 38007 ft 450 kts 243°
2026-05-06 13:17 43.40425 -67.38166 38012 ft 451 kts 243°
2026-05-06 13:17 43.37282 -67.45570 37997 ft 449 kts 243°
2026-05-06 13:18 43.34133 -67.52969 38001 ft 449 kts 243°
2026-05-06 13:18 43.30980 -67.60358 38005 ft 450 kts 243°
2026-05-06 13:19 43.27832 -67.67719 38019 ft 449 kts 242°
2026-05-06 13:19 43.24676 -67.75077 38011 ft 449 kts 243°
2026-05-06 13:20 43.21514 -67.82433 38009 ft 449 kts 243°
2026-05-06 13:20 43.18325 -67.89829 38016 ft 449 kts 243°
2026-05-06 13:21 43.15150 -67.97178 38012 ft 450 kts 243°
2026-05-06 13:21 43.11983 -68.04488 38003 ft 450 kts 243°
2026-05-06 13:22 43.08803 -68.11810 38001 ft 449 kts 243°
2026-05-06 13:22 43.05607 -68.19151 37989 ft 448 kts 243°
2026-05-06 13:23 43.02421 -68.26451 38221 ft 450 kts 243°
2026-05-06 13:23 43.00830 -68.30090 38016 ft 450 kts 243°
2026-05-06 13:23 42.99232 -68.33738 37995 ft 446 kts 243°
2026-05-06 13:24 42.96047 -68.41000 37983 ft 447 kts 243°
2026-05-06 13:24 42.92852 -68.48266 37994 ft 447 kts 243°
2026-05-06 13:25 42.89679 -68.55463 37990 ft 448 kts 243°
2026-05-06 13:25 42.86463 -68.62741 37994 ft 449 kts 243°
2026-05-06 13:26 42.83267 -68.69955 37996 ft 447 kts 242°
2026-05-06 13:26 42.80038 -68.77225 37985 ft 446 kts 242°
2026-05-06 13:27 42.76823 -68.84449 37983 ft 448 kts 242°
2026-05-06 13:27 42.73631 -68.91601 37968 ft 445 kts 242°
2026-05-06 13:28 42.70416 -68.98789 37972 ft 447 kts 242°
2026-05-06 13:28 42.67182 -69.05997 37976 ft 444 kts 242°
2026-05-06 13:29 42.63980 -69.13122 37971 ft 445 kts 242°
2026-05-06 13:29 42.60757 -69.20274 37965 ft 444 kts 242°
2026-05-06 13:30 42.57539 -69.27397 37964 ft 443 kts 242°
2026-05-06 13:30 42.54331 -69.34482 37963 ft 443 kts 243°
2026-05-06 13:31 42.51099 -69.41603 37967 ft 442 kts 243°
2026-05-06 13:31 42.47900 -69.48633 37953 ft 443 kts 243°
2026-05-06 13:32 42.44668 -69.55722 37963 ft 443 kts 243°
2026-05-06 13:32 42.41450 -69.62761 37969 ft 441 kts 243°
2026-05-06 13:33 42.38228 -69.69793 37977 ft 443 kts 242°
2026-05-06 13:33 42.34988 -69.76846 37978 ft 440 kts 242°
2026-05-06 13:34 42.31777 -69.83820 37969 ft 438 kts 242°
2026-05-06 13:34 42.28544 -69.90828 37970 ft 438 kts 242°
2026-05-06 13:35 42.25324 -69.97790 37966 ft 439 kts 242°
2026-05-06 13:35 42.22111 -70.04718 37970 ft 436 kts 243°
2026-05-06 13:36 42.18893 -70.11643 37958 ft 435 kts 242°
2026-05-06 13:36 42.15697 -70.18506 37980 ft 436 kts 243°
2026-05-06 13:37 42.12456 -70.25450 37968 ft 436 kts 242°
2026-05-06 13:37 42.09243 -70.32316 37972 ft 435 kts 243°
2026-05-06 13:38 42.06022 -70.39184 37956 ft 435 kts 242°
2026-05-06 13:38 42.03187 -70.46269 37957 ft 431 kts 251°
2026-05-06 13:39 42.00887 -70.53697 37950 ft 429 kts 251°
2026-05-06 13:39 41.98587 -70.61076 37954 ft 429 kts 251°
2026-05-06 13:40 41.96285 -70.68411 37967 ft 430 kts 251°
2026-05-06 13:40 41.93962 -70.75776 37951 ft 427 kts 251°
2026-05-06 13:41 41.91632 -70.83139 37956 ft 429 kts 250°
2026-05-06 13:41 41.89317 -70.90423 37947 ft 428 kts 251°
2026-05-06 13:42 41.86986 -70.97742 37959 ft 426 kts 251°
2026-05-06 13:42 41.84644 -71.05075 37953 ft 429 kts 250°
2026-05-06 13:43 41.82301 -71.12383 37951 ft 428 kts 251°
2026-05-06 13:43 41.79952 -71.19695 37942 ft 425 kts 251°
2026-05-06 13:44 41.77617 -71.26944 37935 ft 427 kts 251°
2026-05-06 13:44 41.75250 -71.34274 37933 ft 426 kts 251°
2026-05-06 13:45 41.72696 -71.41335 37463 ft 423 kts 242°
2026-05-06 13:45 41.68644 -71.47205 35635 ft 436 kts 226°
2026-05-06 13:45 41.66341 -71.49790 34833 ft 435 kts 225°
2026-05-06 13:46 41.64017 -71.52383 33977 ft 434 kts 225°
2026-05-06 13:46 41.61706 -71.54958 33143 ft 432 kts 225°
2026-05-06 13:46 41.59413 -71.57512 32289 ft 432 kts 225°
2026-05-06 13:46 41.57113 -71.60071 31420 ft 431 kts 225°
2026-05-06 13:47 41.54841 -71.62597 30579 ft 431 kts 225°
2026-05-06 13:47 41.52544 -71.65147 30042 ft 423 kts 224°
2026-05-06 13:47 41.50310 -71.67625 29587 ft 416 kts 224°
2026-05-06 13:47 41.48047 -71.70139 29058 ft 430 kts 224°
2026-05-06 13:48 41.45751 -71.72686 28475 ft 433 kts 223°
2026-05-06 13:48 41.43448 -71.75234 27889 ft 428 kts 223°
2026-05-06 13:48 41.41179 -71.77741 27317 ft 422 kts 223°
2026-05-06 13:48 41.38928 -71.80226 26734 ft 415 kts 223°
2026-05-06 13:49 41.36755 -71.82625 26145 ft 410 kts 223°
2026-05-06 13:49 41.34577 -71.85027 25569 ft 403 kts 223°
2026-05-06 13:49 41.32417 -71.87406 24993 ft 397 kts 223°
2026-05-06 13:49 41.30331 -71.89703 24423 ft 392 kts 222°
2026-05-06 13:50 41.28234 -71.92010 23851 ft 386 kts 222°
2026-05-06 13:50 41.26169 -71.94280 23429 ft 386 kts 222°
2026-05-06 13:50 41.24086 -71.96571 23057 ft 394 kts 222°
2026-05-06 13:50 41.21999 -71.98861 22656 ft 390 kts 222°
2026-05-06 13:51 41.19923 -72.01136 22244 ft 386 kts 222°
2026-05-06 13:51 41.17861 -72.03395 21828 ft 382 kts 222°
2026-05-06 13:51 41.15817 -72.05631 21418 ft 379 kts 222°
2026-05-06 13:51 41.13807 -72.07830 21020 ft 377 kts 222°
2026-05-06 13:52 41.11868 -72.10200 20609 ft 373 kts 229°
2026-05-06 13:52 41.10284 -72.12897 20213 ft 370 kts 237°
2026-05-06 13:52 41.09075 -72.15850 19823 ft 366 kts 246°
2026-05-06 13:52 41.08206 -72.18999 19430 ft 365 kts 251°
2026-05-06 13:53 41.07422 -72.22164 19036 ft 364 kts 251°
2026-05-06 13:53 41.06642 -72.25328 18653 ft 361 kts 251°
2026-05-06 13:53 41.05863 -72.28474 18270 ft 359 kts 250°
2026-05-06 13:53 41.05084 -72.31615 17872 ft 356 kts 250°
2026-05-06 13:54 41.04320 -72.34691 17490 ft 352 kts 250°
2026-05-06 13:54 41.03554 -72.37769 17112 ft 345 kts 250°
2026-05-06 13:54 41.02821 -72.40710 16751 ft 336 kts 250°
2026-05-06 13:54 41.02095 -72.43620 16390 ft 327 kts 250°
2026-05-06 13:55 41.01394 -72.46422 16073 ft 317 kts 250°
2026-05-06 13:55 41.00717 -72.49129 15768 ft 308 kts 249°
2026-05-06 13:55 41.00051 -72.51787 15459 ft 300 kts 249°
2026-05-06 13:55 40.99405 -72.54359 15122 ft 293 kts 249°
2026-05-06 13:56 40.98767 -72.56902 14798 ft 285 kts 249°
2026-05-06 13:56 40.98152 -72.59345 14493 ft 278 kts 249°
2026-05-06 13:56 40.97550 -72.61740 14208 ft 271 kts 249°
2026-05-06 13:56 40.96947 -72.64124 13707 ft 291 kts 249°
2026-05-06 13:57 40.96267 -72.66798 12893 ft 322 kts 248°
2026-05-06 13:57 40.95564 -72.69592 12362 ft 312 kts 248°
2026-05-06 13:57 40.94917 -72.72179 12307 ft 283 kts 248°
2026-05-06 13:57 40.94322 -72.74542 12270 ft 257 kts 248°
2026-05-06 13:58 40.93779 -72.76687 12219 ft 243 kts 247°
2026-05-06 13:58 40.93155 -72.78844 12068 ft 257 kts 238°
2026-05-06 13:58 40.92039 -72.80683 11890 ft 255 kts 220°
2026-05-06 13:58 40.90625 -72.82129 11676 ft 255 kts 218°
2026-05-06 13:59 40.89199 -72.83505 11465 ft 253 kts 217°
2026-05-06 13:59 40.87763 -72.84882 11263 ft 253 kts 217°
2026-05-06 13:59 40.86345 -72.86243 11064 ft 254 kts 217°
2026-05-06 13:59 40.84908 -72.87620 10857 ft 251 kts 217°
2026-05-06 14:00 40.83514 -72.88957 10657 ft 249 kts 217°
2026-05-06 14:00 40.82120 -72.90293 10461 ft 246 kts 217°
2026-05-06 14:00 40.80740 -72.91615 10262 ft 240 kts 217°
2026-05-06 14:00 40.79399 -72.92898 10072 ft 237 kts 216°
2026-05-06 14:01 40.78066 -72.94173 9869 ft 237 kts 216°
2026-05-06 14:01 40.76742 -72.95439 9647 ft 235 kts 216°
2026-05-06 14:01 40.75413 -72.96709 9441 ft 236 kts 216°
2026-05-06 14:01 40.74085 -72.97977 9231 ft 236 kts 216°
2026-05-06 14:02 40.72754 -72.99249 9012 ft 235 kts 216°
2026-05-06 14:02 40.71441 -73.00500 8793 ft 232 kts 217°
2026-05-06 14:02 40.70136 -73.01758 8579 ft 234 kts 220°
2026-05-06 14:02 40.69097 -73.03394 8366 ft 233 kts 239°
2026-05-06 14:03 40.68631 -73.05439 8162 ft 241 kts 259°
2026-05-06 14:03 40.68578 -73.07664 7968 ft 243 kts 263°
2026-05-06 14:03 40.68583 -73.09907 7759 ft 244 kts 264°
2026-05-06 14:03 40.68597 -73.12145 7545 ft 243 kts 264°
2026-05-06 14:04 40.68610 -73.14349 7339 ft 242 kts 264°
2026-05-06 14:04 40.68621 -73.16584 7135 ft 242 kts 264°
2026-05-06 14:04 40.68637 -73.18774 6942 ft 241 kts 266°
2026-05-06 14:04 40.69077 -73.20948 6894 ft 251 kts 288°
2026-05-06 14:05 40.69899 -73.23003 6899 ft 257 kts 291°
2026-05-06 14:05 40.70762 -73.25085 6822 ft 259 kts 290°
2026-05-06 14:05 40.71617 -73.27138 6749 ft 249 kts 291°
2026-05-06 14:05 40.72432 -73.29087 6717 ft 236 kts 290°
2026-05-06 14:06 40.73196 -73.30913 6687 ft 223 kts 289°
2026-05-06 14:06 40.73941 -73.32703 6504 ft 219 kts 290°
2026-05-06 14:06 40.74672 -73.34471 6217 ft 219 kts 289°
2026-05-06 14:06 40.75381 -73.36174 6170 ft 207 kts 289°
2026-05-06 14:07 40.76062 -73.37820 5946 ft 205 kts 289°
2026-05-06 14:07 40.76739 -73.39459 5688 ft 203 kts 289°
2026-05-06 14:07 40.77413 -73.41092 5431 ft 202 kts 289°
2026-05-06 14:07 40.78088 -73.42728 5136 ft 200 kts 289°
2026-05-06 14:08 40.78753 -73.44341 4788 ft 197 kts 289°
2026-05-06 14:08 40.79394 -73.45895 4480 ft 191 kts 289°
2026-05-06 14:08 40.80022 -73.47417 4180 ft 186 kts 289°
2026-05-06 14:08 40.80628 -73.48890 3885 ft 181 kts 288°
2026-05-06 14:09 40.81214 -73.50317 3596 ft 176 kts 288°
2026-05-06 14:09 40.81791 -73.51723 3294 ft 171 kts 288°
2026-05-06 14:09 40.82151 -73.53112 3009 ft 148 kts 266°
2026-05-06 14:09 40.82072 -73.54414 3016 ft 136 kts 249°
2026-05-06 14:10 40.81823 -73.55517 2972 ft 118 kts 248°
2026-05-06 14:10 40.81567 -73.56548 2971 ft 115 kts 246°
2026-05-06 14:10 40.81306 -73.57541 2974 ft 115 kts 245°
2026-05-06 14:10 40.81044 -73.58541 2974 ft 112 kts 245°
2026-05-06 14:11 40.80788 -73.59513 2972 ft 113 kts 245°
2026-05-06 14:11 40.80528 -73.60500 2972 ft 115 kts 245°
2026-05-06 14:11 40.80271 -73.61481 2969 ft 114 kts 245°
2026-05-06 14:11 40.79969 -73.62456 2972 ft 114 kts 238°
2026-05-06 14:12 40.79591 -73.63373 2969 ft 114 kts 237°
2026-05-06 14:12 40.79061 -73.64129 2987 ft 112 kts 219°
2026-05-06 14:12 40.78402 -73.64673 2992 ft 112 kts 214°
2026-05-06 14:12 40.77724 -73.65192 2963 ft 113 kts 214°
2026-05-06 14:13 40.77042 -73.65733 2821 ft 113 kts 214°
2026-05-06 14:13 40.76362 -73.66261 2679 ft 114 kts 213°
2026-05-06 14:13 40.75688 -73.66784 2543 ft 114 kts 213°
2026-05-06 14:13 40.75002 -73.67317 2398 ft 114 kts 213°
2026-05-06 14:14 40.74324 -73.67846 2246 ft 111 kts 213°
2026-05-06 14:14 40.73656 -73.68368 2104 ft 112 kts 212°
2026-05-06 14:14 40.72960 -73.68912 1953 ft 117 kts 212°
2026-05-06 14:14 40.72257 -73.69460 1810 ft 120 kts 212°
2026-05-06 14:15 40.71540 -73.70019 1667 ft 120 kts 212°
2026-05-06 14:15 40.70829 -73.70576 1502 ft 119 kts 211°
2026-05-06 14:15 40.70106 -73.71138 1355 ft 119 kts 211°
2026-05-06 14:15 40.69396 -73.71693 1170 ft 120 kts 211°
2026-05-06 14:16 40.68687 -73.72245 1012 ft 120 kts 211°
2026-05-06 14:16 40.67961 -73.72813 840 ft 122 kts 210°
2026-05-06 14:16 40.67216 -73.73394 664 ft 125 kts 210°
2026-05-06 14:16 40.66468 -73.73976 496 ft 126 kts 209°
2026-05-06 14:17 40.65720 -73.74560 358 ft 126 kts 209°
2026-05-06 14:17 40.64957 -73.75150 163 ft 124 kts 209°
2026-05-06 14:17 40.64220 -73.75726 34 ft 119 kts 208°
2026-05-06 14:17 40.63612 -73.76198 28 ft 76 kts 212°
2026-05-06 14:18 40.63276 -73.76460 28 ft 46 kts 209°
2026-05-06 14:18 40.63069 -73.76643 28 ft 27 kts 221°
2026-05-06 14:18 40.62963 -73.76810 28 ft 19 kts 238°
2026-05-06 14:18 40.62934 -73.76970 28 ft 18 kts 286°
2026-05-06 14:19 40.62991 -73.77111 28 ft 17 kts 300°
2026-05-06 14:19 40.63050 -73.77242 28 ft 16 kts 300°
2026-05-06 14:19 40.63107 -73.77364 28 ft 15 kts 301°
2026-05-06 14:19 40.63160 -73.77478 28 ft 14 kts 301°
2026-05-06 14:20 40.63208 -73.77585 28 ft 13 kts 300°
2026-05-06 14:20 40.63253 -73.77686 28 ft 12 kts 300°
2026-05-06 14:20 40.63297 -73.77783 28 ft 12 kts 301°
2026-05-06 14:20 40.63338 -73.77876 28 ft 11 kts 299°
2026-05-06 14:21 40.63377 -73.77965 28 ft 11 kts 299°
2026-05-06 14:21 40.63414 -73.78051 28 ft 10 kts 299°
2026-05-06 14:21 40.63452 -73.78135 28 ft 10 kts 301°
2026-05-06 14:21 40.63490 -73.78218 28 ft 11 kts 300°
2026-05-06 14:22 40.63534 -73.78316 28 ft 13 kts 300°
2026-05-06 14:22 40.63585 -73.78429 28 ft 15 kts 301°
2026-05-06 14:22 40.63640 -73.78552 28 ft 16 kts 300°
2026-05-06 14:22 40.63701 -73.78687 28 ft 17 kts 301°
2026-05-06 14:23 40.63765 -73.78828 28 ft 18 kts 300°
2026-05-06 14:23 40.63835 -73.78981 28 ft 19 kts 300°
2026-05-06 14:23 40.63905 -73.79137 28 ft 20 kts 301°
2026-05-06 14:23 40.63981 -73.79303 28 ft 21 kts 301°
2026-05-06 14:24 40.64041 -73.79436 28 ft 15 kts 300°
2026-05-06 14:24 40.64108 -73.79505 28 ft 11 kts 344°
2026-05-06 14:24 40.64173 -73.79507 28 ft 7 kts 17°
2026-05-06 14:24 40.64212 -73.79464 28 ft 6 kts 67°
2026-05-06 14:25 40.64216 -73.79440 28 ft 0 kts 85°
2026-05-06 14:25 40.64216 -73.79439 28 ft 0 kts 85°
2026-05-06 14:26 40.64216 -73.79424 28 ft 6 kts 107°
2026-05-06 14:26 40.64195 -73.79385 28 ft 3 kts 126°
2026-05-06 14:26 40.64187 -73.79363 28 ft 2 kts 115°
2026-05-06 14:26 40.64183 -73.79345 28 ft 1 kts 104°
2026-05-06 14:27 40.64180 -73.79336 28 ft 0 kts 114°
2026-05-06 14:27 40.64178 -73.79330 28 ft 0 kts 108°
2026-05-06 14:27 40.64177 -73.79323 28 ft 0 kts 108°
2026-05-06 14:27 40.64176 -73.79319 28 ft 0 kts 108°